Regional Weather Roundup
Issued by NWS

Home | Current Version | Previous Version | Graphics & Text | Print | Product List | Glossary Off
Versions: 1 2 3 4 5 6 7 8 9 10 11 12 13 14 15 16 17 18 19 20 21 22 23 24 25 26 27 28 29 30 31 32 33 34 35 36 37 38 39 40 41 42 43 44 45 46 47 48

000
ASUS43 KDMX 221507
RWRIA

WEATHER ROUNDUP FOR IOWA
NATIONAL WEATHER SERVICE DES MOINES IA
1000 AM CDT MON SEP 22 2014

NOTE: "FAIR" INDICATES FEW OR NO CLOUDS BELOW 12,000 FEET WITH NO
SIGNIFICANT WEATHER AND/OR OBSTRUCTIONS TO VISIBILITY.

* - THESE STATIONS ARE NOT NWS STATIONS...THUS NOT UNDER NWS
QUALITY CONTROL.  THEY ALSO DO NOT REPORT WEATHER SUCH
AS PRECIPITATION OR FOG.

IAZ001>003-012>014-020>022-031>034-043>046-221600-
   NORTHWEST IOWA

CITY           SKY/WX    TMP DP  RH WIND       PRES   REMARKS
CARROLL *      SUNNY     61  52  72 CALM      30.32R
CHEROKEE *     SUNNY     55  54  94 CALM      30.31S
DENISON *      SUNNY     59  55  88 CALM      30.30S
LE MARS *      SUNNY     57  52  82 SW5       30.30S
ORANGE CITY *  SUNNY     61  52  72 S7        30.29S
SHELDON *      SUNNY     59  52  77 S9        30.28F
SIOUX CITY     SUNNY     58  52  80 S3        30.30S
SPENCER        SUNNY     60  51  72 SW5       30.31S
STORM LAKE *   SUNNY     57  55  94 SW6       30.31S
$$

IAZ055>058-069>071-079>083-090>094-221600-
   SOUTHWEST IOWA

CITY           SKY/WX    TMP DP  RH WIND       PRES   REMARKS
ATLANTIC *     SUNNY     59  52  77 CALM      30.33R
AUDUBON *      SUNNY     59  52  77 CALM      30.33R
CLARINDA *     SUNNY     59  54  82 CALM      30.34S
COUNCIL BLFS * SUNNY     61  54  77 S9        30.31R
CRESTON *      SUNNY     61  50  67 VRB3      30.33S
HARLAN  *      SUNNY     59  54  82 CALM      30.35S
LAMONI         SUNNY     60  53  77 CALM      30.33S
RED OAK *      SUNNY     61  55  82 CALM      30.32F
SHENANDOAH *   SUNNY     59  55  88 CALM      30.33S
$$

IAZ047>049-059>061-072>074-084-221600-
   CENTRAL IOWA

CITY           SKY/WX    TMP DP  RH WIND       PRES   REMARKS
AMES           SUNNY     59  52  77 CALM      30.32S
ANKENY *       SUNNY     59  52  77 CALM      30.33S
CHARITON *     SUNNY     59  52  77 CALM      30.33S
DES MOINES     SUNNY     62  51  67 CALM      30.33R
GRINNELL*      SUNNY     59  50  72 CALM      30.33S
KNOXVILLE *    SUNNY     57  50  77 CALM      30.32S
MARSHALLTOWN   SUNNY     58  52  80 S5        30.32S
PELLA *        SUNNY     59  52  77 CALM      30.34S
PERRY *          N/A     59  52  77 CALM      30.33R
$$

IAZ004>006-015-016-023>025-035-036-221600-
   NORTH CENTRAL IOWA

CITY           SKY/WX    TMP DP  RH WIND       PRES   REMARKS
ALGONA *       SUNNY     59  52  77 SW6       30.32R
CLARION *        N/A     57  52  82 CALM      30.32S
ESTHERVILLE    SUNNY     59  51  75 W8        30.30S
FORT DODGE *   SUNNY     57  52  82 CALM      30.32S
MASON CITY     SUNNY     57  52  83 W7        30.32S
FOREST CITY *  SUNNY     59  52  77 SW3       30.31S
IOWA FALLS *     N/A     59  52  77 W6        30.33S
$$

IAZ007>011-017>019-026>030-037>042-050>054-066-221600-
   NORTHEAST IOWA

CITY           SKY/WX    TMP DP  RH WIND       PRES   REMARKS
CEDAR RAPIDS   SUNNY     56  48  74 S5        30.32R
CHARLES CITY * SUNNY     59  52  77 SW7       30.32R
CLINTON *      SUNNY     55  43  62 CALM      30.36R
DECORAH *      SUNNY     55  50  82 VRB3      30.30R
DUBUQUE        SUNNY     55  45  68 SW8       30.32R
MONTICELLO *   SUNNY     57  46  67 S5        30.32R
OELWEIN *      SUNNY     57  50  77 SW7       30.32S
WATERLOO       SUNNY     57  50  77 VRB3      30.31R
$$

IAZ064-065-067-068-078-221600-
   EAST CENTRAL IOWA

CITY           SKY/WX    TMP DP  RH WIND       PRES   REMARKS
DAVENPORT      SUNNY     56  44  64 CALM      30.33R
IOWA CITY      SUNNY     56  47  71 S3        30.34R
MT. PLEASANT * SUNNY     59  46  63 CALM      30.33S
MUSCATINE *    SUNNY     57  48  72 CALM      30.33F
QUAD CITIES    SUNNY     56  45  66 CALM      30.33R
$$

IAZ062-063-075>077-085>089-095>099-221600-
   SOUTHEAST IOWA

CITY           SKY/WX    TMP DP  RH WIND       PRES   REMARKS
BURLINGTON     SUNNY     59  48  67 CALM      30.33R
FAIRFIELD *    SUNNY     59  50  72 CALM      30.34S
FORT MADISON * SUNNY     61  48  63 CALM      30.34R
KEOKUK *       SUNNY     59  50  72 CALM      30.33R HAZE
OSKALOOSA *      N/A     59  50  72 SE3       30.33S
CENTERVILLE *  SUNNY     57  54  88 CALM      30.35S
OTTUMWA        SUNNY     59  49  69 SE3       30.33R
WASHINGTON *   SUNNY     59  48  67 CALM      30.33S
$$

ABBREVIATIONS USED IN REMARKS
   TC - TEMPERATURES IN CELSIUS
  WCI - WIND CHILL INDEX
   HX - HEAT INDEX
  VSB - VISIBILITY
$$



USA.gov is the U.S. government's official web portal to all federal, state and local government web resources and services.